TimeCST,TemperatureF,Dew PointF,Humidity,Sea Level PressureIn,VisibilityMPH,Wind Direction,Wind SpeedMPH,Gust SpeedMPH,PrecipitationIn,Events,Conditions,WindDirDegrees,DateUTC
12:15 AM,64.4,42.8,45,29.78,10.0,NNW,16.1,20.7,N/A,,Clear,330,2013-03-05 06:15:00
12:35 AM,62.6,39.2,42,29.80,10.0,NNW,15.0,23.0,N/A,,Clear,330,2013-03-05 06:35:00
12:55 AM,57.2,41.0,55,29.84,10.0,NNW,24.2,39.1,N/A,,Clear,330,2013-03-05 06:55:00
1:15 AM,53.6,39.2,58,29.87,10.0,NW,31.1,35.7,N/A,,Clear,320,2013-03-05 07:15:00
1:55 AM,50.0,37.4,62,29.93,10.0,NNW,19.6,34.5,N/A,,Clear,330,2013-03-05 07:55:00
2:15 AM,50.0,37.4,62,29.98,10.0,NNW,26.5,33.4,N/A,,Clear,330,2013-03-05 08:15:00
2:35 AM,48.2,35.6,62,29.98,10.0,NNW,25.3,39.1,N/A,,Clear,340,2013-03-05 08:35:00
2:55 AM,46.4,35.6,66,30.00,10.0,NNW,31.1,39.1,N/A,,Clear,330,2013-03-05 08:55:00
3:15 AM,48.2,35.6,62,30.06,10.0,NNW,23.0,27.6,N/A,,Scattered Clouds,330,2013-03-05 09:15:00
4:15 AM,48.2,32.0,54,30.10,10.0,NNW,28.8,36.8,N/A,,Clear,340,2013-03-05 10:15:00
4:35 AM,46.4,32.0,57,30.10,10.0,NNW,25.3,42.6,N/A,,Clear,340,2013-03-05 10:35:00
4:55 AM,46.4,32.0,57,30.12,10.0,NNW,20.7,34.5,N/A,,Clear,340,2013-03-05 10:55:00
5:15 AM,46.4,32.0,57,30.15,10.0,North,15.0,31.1,N/A,,Clear,350,2013-03-05 11:15:00
5:35 AM,46.4,32.0,57,30.15,10.0,North,21.9,33.4,N/A,,Clear,350,2013-03-05 11:35:00
6:15 AM,44.6,32.0,61,30.18,10.0,North,17.3,25.3,N/A,,Clear,350,2013-03-05 12:15:00
6:35 AM,44.6,32.0,61,30.19,10.0,NNW,17.3,25.3,N/A,,Clear,340,2013-03-05 12:35:00
7:15 AM,44.6,26.6,49,30.23,10.0,NNW,19.6,29.9,N/A,,Clear,340,2013-03-05 13:15:00
7:35 AM,44.6,28.4,53,30.24,10.0,NNW,18.4,23.0,N/A,,Clear,340,2013-03-05 13:35:00
7:55 AM,44.6,28.4,53,30.25,10.0,NNW,19.6,24.2,N/A,,Clear,330,2013-03-05 13:55:00
8:15 AM,44.6,28.4,53,30.26,10.0,NNW,23.0,29.9,N/A,,Clear,340,2013-03-05 14:15:00
8:35 AM,44.6,28.4,53,30.27,10.0,North,23.0,28.8,N/A,,Clear,350,2013-03-05 14:35:00
8:55 AM,46.4,26.6,46,30.27,10.0,North,24.2,34.5,N/A,,Clear,350,2013-03-05 14:55:00
9:15 AM,46.4,26.6,46,30.28,10.0,NNW,19.6,29.9,N/A,,Clear,340,2013-03-05 15:15:00
9:35 AM,48.2,26.6,43,30.29,10.0,NNW,23.0,28.8,N/A,,Clear,340,2013-03-05 15:35:00
10:15 AM,50.0,21.2,32,30.31,10.0,NNW,24.2,29.9,N/A,,Clear,330,2013-03-05 16:15:00
10:35 AM,50.0,19.4,30,30.32,10.0,North,24.2,28.8,N/A,,Clear,360,2013-03-05 16:35:00
10:55 AM,50.0,19.4,30,30.33,10.0,NNW,20.7,31.1,N/A,,Clear,330,2013-03-05 16:55:00
11:15 AM,50.0,17.6,28,30.34,10.0,NNW,24.2,35.7,N/A,,Clear,340,2013-03-05 17:15:00
11:35 AM,51.8,19.4,28,30.34,10.0,NW,19.6,31.1,N/A,,Clear,320,2013-03-05 17:35:00
11:55 AM,51.8,17.6,26,30.34,10.0,North,23.0,31.1,N/A,,Clear,350,2013-03-05 17:55:00
12:15 PM,51.8,19.4,28,30.34,10.0,NNW,20.7,28.8,N/A,,Clear,330,2013-03-05 18:15:00
12:35 PM,53.6,15.8,22,30.33,10.0,North,25.3,31.1,N/A,,Clear,350,2013-03-05 18:35:00
12:55 PM,53.6,15.8,22,30.33,10.0,NNW,21.9,33.4,N/A,,Clear,330,2013-03-05 18:55:00
1:15 PM,53.6,15.8,22,30.33,10.0,NNW,21.9,32.2,N/A,,Clear,330,2013-03-05 19:15:00
1:35 PM,53.6,15.8,22,30.32,10.0,NNW,25.3,31.1,N/A,,Clear,330,2013-03-05 19:35:00
1:55 PM,53.6,15.8,22,30.32,10.0,NNW,16.1,25.3,N/A,,Clear,340,2013-03-05 19:55:00
2:15 PM,55.4,14.0,20,30.31,10.0,NW,25.3,32.2,N/A,,Clear,320,2013-03-05 20:15:00
2:35 PM,55.4,14.0,20,30.30,10.0,NNW,23.0,28.8,N/A,,Clear,340,2013-03-05 20:35:00
2:55 PM,55.4,14.0,20,30.30,10.0,NNW,18.4,29.9,N/A,,Clear,340,2013-03-05 20:55:00
3:15 PM,55.4,14.0,20,30.30,10.0,NNW,19.6,27.6,N/A,,Clear,330,2013-03-05 21:15:00
3:35 PM,55.4,12.2,18,30.30,10.0,North,19.6,31.1,N/A,,Clear,350,2013-03-05 21:35:00
3:55 PM,55.4,14.0,20,30.30,10.0,NNW,23.0,28.8,N/A,,Clear,340,2013-03-05 21:55:00
4:15 PM,55.4,12.2,18,30.30,10.0,NNW,18.4,26.5,N/A,,Clear,330,2013-03-05 22:15:00
4:35 PM,55.4,14.0,20,30.30,10.0,NW,16.1,24.2,N/A,,Clear,320,2013-03-05 22:35:00
4:55 PM,55.4,12.2,18,30.30,10.0,NNW,20.7,-,N/A,,Clear,330,2013-03-05 22:55:00
5:15 PM,55.4,12.2,18,30.30,10.0,NNW,17.3,24.2,N/A,,Clear,340,2013-03-05 23:15:00
5:35 PM,53.6,12.2,19,30.30,10.0,NW,13.8,24.2,N/A,,Clear,320,2013-03-05 23:35:00
5:55 PM,53.6,12.2,19,30.30,10.0,NNW,12.7,-,N/A,,Clear,330,2013-03-05 23:55:00
6:15 PM,51.8,12.2,21,30.32,10.0,NW,13.8,18.4,N/A,,Clear,320,2013-03-06 00:15:00
6:35 PM,51.8,14.0,22,30.32,10.0,NNW,10.4,17.3,N/A,,Clear,330,2013-03-06 00:35:00
6:55 PM,48.2,14.0,25,30.33,10.0,NW,4.6,-,N/A,,Clear,320,2013-03-06 00:55:00
7:15 PM,46.4,15.8,29,30.34,10.0,NW,4.6,-,N/A,,Clear,320,2013-03-06 01:15:00
7:35 PM,46.4,15.8,29,30.35,10.0,NW,5.8,-,N/A,,Clear,320,2013-03-06 01:35:00
7:55 PM,46.4,17.6,32,30.35,10.0,NW,5.8,-,N/A,,Clear,320,2013-03-06 01:55:00
8:15 PM,46.4,17.6,32,30.35,10.0,NW,6.9,-,N/A,,Clear,320,2013-03-06 02:15:00
8:35 PM,44.6,17.6,34,30.35,10.0,NNW,6.9,-,N/A,,Clear,330,2013-03-06 02:35:00
8:55 PM,44.6,17.6,34,30.36,10.0,NW,3.5,-,N/A,,Clear,310,2013-03-06 02:55:00
9:15 PM,44.6,17.6,34,30.36,10.0,NNW,8.1,-,N/A,,Clear,330,2013-03-06 03:15:00
9:35 PM,42.8,17.6,36,30.37,10.0,NNW,8.1,-,N/A,,Clear,330,2013-03-06 03:35:00
9:55 PM,42.8,19.4,39,30.37,10.0,NNW,8.1,-,N/A,,Clear,330,2013-03-06 03:55:00
10:15 PM,41.0,19.4,42,30.37,10.0,NNW,8.1,-,N/A,,Clear,330,2013-03-06 04:15:00
10:35 PM,41.0,19.4,42,30.38,10.0,NNW,10.4,-,N/A,,Clear,340,2013-03-06 04:35:00
10:55 PM,37.4,21.2,52,30.37,10.0,North,8.1,-,N/A,,Clear,350,2013-03-06 04:55:00
11:15 PM,37.4,19.4,48,30.37,10.0,North,6.9,-,N/A,,Clear,10,2013-03-06 05:15:00
11:35 PM,37.4,19.4,48,30.37,10.0,North,8.1,-,N/A,,Clear,360,2013-03-06 05:35:00
11:55 PM,37.4,21.2,52,30.38,10.0,NNW,9.2,-,N/A,,Clear,340,2013-03-06 05:55:00